Time,TemperatureF,DewpointF,PressureIn,WindDirection,WindDirectionDegrees,WindSpeedMPH,WindSpeedGustMPH,Humidity,HourlyPrecipIn,Conditions,Clouds,dailyrainin,SolarRadiationWatts/m^2,SoftwareType,DateUTC
2013-07-08 00:01:00,75.0,70.0,-100.00,South,187,0.0,2.0,84,0.00,,,0.00,0.000000,,2013-07-08 05:01:00,
2013-07-08 00:12:00,75.0,70.0,-100.00,South,187,0.0,2.0,84,0.00,,,0.00,0.000000,,2013-07-08 05:12:00,
2013-07-08 00:43:00,75.0,70.0,-100.00,SSE,163,2.0,4.0,84,0.00,,,0.00,0.000000,,2013-07-08 05:43:00,
2013-07-08 00:53:00,75.0,70.0,-100.00,SSE,163,2.0,4.0,84,0.00,,,0.00,0.000000,,2013-07-08 05:53:00,
2013-07-08 01:01:00,75.0,70.0,-100.00,SSE,163,2.0,4.0,84,0.00,,,0.00,0.000000,,2013-07-08 06:01:00,
2013-07-08 01:12:00,75.0,70.0,-100.00,SSE,163,2.0,4.0,84,0.00,,,0.00,0.000000,,2013-07-08 06:12:00,
2013-07-08 01:43:00,75.0,71.0,-100.00,South,182,0.0,4.0,86,0.00,,,0.00,0.000000,,2013-07-08 06:43:00,
2013-07-08 01:53:00,75.0,71.0,-100.00,South,182,0.0,4.0,86,0.00,,,0.00,0.000000,,2013-07-08 06:53:00,
2013-07-08 02:02:00,75.0,71.0,-100.00,South,182,0.0,4.0,86,0.00,,,0.00,0.000000,,2013-07-08 07:02:00,
2013-07-08 02:12:00,75.0,71.0,-100.00,South,182,0.0,4.0,86,0.00,,,0.00,0.000000,,2013-07-08 07:12:00,
2013-07-08 02:44:00,76.0,70.0,-100.00,South,182,6.0,11.0,83,0.00,,,0.00,0.000000,,2013-07-08 07:44:00,
2013-07-08 02:53:00,76.0,70.0,-100.00,South,182,6.0,11.0,83,0.00,,,0.00,0.000000,,2013-07-08 07:53:00,
2013-07-08 03:02:00,76.0,70.0,-100.00,South,182,6.0,11.0,83,0.00,,,0.00,0.000000,,2013-07-08 08:02:00,
2013-07-08 03:12:00,76.0,70.0,-100.00,South,182,6.0,11.0,83,0.00,,,0.00,0.000000,,2013-07-08 08:12:00,
2013-07-08 03:42:00,76.0,70.0,-100.00,South,177,6.0,11.0,81,0.00,,,0.00,0.000000,,2013-07-08 08:42:00,
2013-07-08 03:53:00,76.0,70.0,-100.00,South,177,6.0,11.0,81,0.00,,,0.00,0.000000,,2013-07-08 08:53:00,
2013-07-08 04:02:00,76.0,70.0,-100.00,South,177,6.0,11.0,81,0.00,,,0.00,0.000000,,2013-07-08 09:02:00,
2013-07-08 04:11:00,76.0,70.0,-100.00,South,177,6.0,11.0,81,0.00,,,0.00,0.000000,,2013-07-08 09:11:00,
2013-07-08 04:43:00,76.0,69.0,-100.00,SSW,212,4.0,10.0,80,0.00,,,0.00,0.000000,,2013-07-08 09:43:00,
2013-07-08 04:53:00,76.0,69.0,-100.00,SSW,212,4.0,10.0,80,0.00,,,0.00,0.000000,,2013-07-08 09:53:00,
2013-07-08 05:02:00,76.0,69.0,-100.00,SSW,212,4.0,10.0,80,0.00,,,0.00,0.000000,,2013-07-08 10:02:00,
2013-07-08 05:11:00,76.0,69.0,-100.00,SSW,212,4.0,10.0,80,0.00,,,0.00,0.000000,,2013-07-08 10:11:00,
2013-07-08 05:43:00,72.0,72.0,-100.00,SW,214,10.0,23.0,99,0.36,,,0.36,0.000000,,2013-07-08 10:43:00,
2013-07-08 05:53:00,72.0,72.0,-100.00,SW,214,10.0,23.0,99,0.36,,,0.36,0.000000,,2013-07-08 10:53:00,
2013-07-08 06:02:00,72.0,72.0,-100.00,SW,214,10.0,23.0,99,0.36,,,0.36,0.000000,,2013-07-08 11:02:00,
2013-07-08 06:11:00,72.0,72.0,-100.00,SW,214,10.0,23.0,99,0.36,,,0.36,0.000000,,2013-07-08 11:11:00,
2013-07-08 06:43:00,71.0,71.0,-100.00,West,276,5.0,12.0,100,0.11,,,0.47,0.000000,,2013-07-08 11:43:00,
2013-07-08 06:53:00,71.0,71.0,-100.00,West,276,5.0,12.0,100,0.11,,,0.47,0.000000,,2013-07-08 11:53:00,
2013-07-08 07:01:00,71.0,71.0,-100.00,West,276,5.0,12.0,100,0.11,,,0.47,0.000000,,2013-07-08 12:01:00,
2013-07-08 07:11:00,71.0,71.0,-100.00,West,276,5.0,12.0,100,0.11,,,0.47,0.000000,,2013-07-08 12:11:00,
2013-07-08 07:43:00,72.0,72.0,-100.00,SSW,202,6.0,11.0,100,0.01,,,0.48,13.000000,,2013-07-08 12:43:00,
2013-07-08 07:53:00,72.0,72.0,-100.00,SSW,202,6.0,11.0,100,0.01,,,0.48,13.000000,,2013-07-08 12:53:00,
2013-07-08 08:02:00,72.0,72.0,-100.00,SSW,202,6.0,11.0,100,0.01,,,0.48,13.000000,,2013-07-08 13:02:00,
2013-07-08 08:11:00,72.0,72.0,-100.00,SSW,202,6.0,11.0,100,0.01,,,0.48,13.000000,,2013-07-08 13:11:00,
2013-07-08 08:42:00,71.0,71.0,-100.00,SW,218,2.0,13.0,100,0.00,,,0.48,24.000000,,2013-07-08 13:42:00,
2013-07-08 08:53:00,71.0,71.0,-100.00,SW,218,2.0,13.0,100,0.00,,,0.48,24.000000,,2013-07-08 13:53:00,
2013-07-08 09:02:00,71.0,71.0,-100.00,SW,218,2.0,13.0,100,0.00,,,0.48,24.000000,,2013-07-08 14:02:00,
2013-07-08 09:12:00,71.0,71.0,-100.00,SW,218,2.0,13.0,100,0.00,,,0.48,24.000000,,2013-07-08 14:12:00,
2013-07-08 09:43:00,73.0,72.0,-100.00,South,169,3.0,6.0,97,0.00,,,0.48,86.000000,,2013-07-08 14:43:00,
2013-07-08 09:53:00,73.0,72.0,-100.00,South,169,3.0,6.0,97,0.00,,,0.48,86.000000,,2013-07-08 14:53:00,
2013-07-08 10:02:00,73.0,72.0,-100.00,South,169,3.0,6.0,97,0.00,,,0.48,86.000000,,2013-07-08 15:02:00,
2013-07-08 10:11:00,73.0,72.0,-100.00,South,169,3.0,6.0,97,0.00,,,0.48,86.000000,,2013-07-08 15:11:00,
2013-07-08 10:43:00,78.0,73.0,-100.00,SSW,203,4.0,10.0,86,0.00,,,0.48,346.000000,,2013-07-08 15:43:00,
2013-07-08 10:53:00,78.0,73.0,-100.00,SSW,203,4.0,10.0,86,0.00,,,0.48,346.000000,,2013-07-08 15:53:00,
2013-07-08 11:01:00,78.0,73.0,-100.00,SSW,203,4.0,10.0,86,0.00,,,0.48,346.000000,,2013-07-08 16:01:00,
2013-07-08 11:11:00,78.0,73.0,-100.00,SSW,203,4.0,10.0,86,0.00,,,0.48,346.000000,,2013-07-08 16:11:00,
2013-07-08 11:14:00,81.0,75.0,-100.00,SW,231,6.0,10.0,81,0.00,,,0.48,340.000000,,2013-07-08 16:14:00,
2013-07-08 11:43:00,81.0,75.0,-100.00,SW,231,6.0,10.0,81,0.00,,,0.48,340.000000,,2013-07-08 16:43:00,
2013-07-08 11:57:00,81.0,75.0,-100.00,SW,231,6.0,10.0,81,0.00,,,0.48,340.000000,,2013-07-08 16:57:00,
2013-07-08 12:07:00,81.0,75.0,-100.00,SW,231,6.0,10.0,81,0.00,,,0.48,340.000000,,2013-07-08 17:07:00,
2013-07-08 12:14:00,80.0,74.0,-100.00,WNW,286,5.0,10.0,82,0.00,,,0.48,406.000000,,2013-07-08 17:14:00,
2013-07-08 12:48:00,80.0,74.0,-100.00,WNW,286,5.0,10.0,82,0.00,,,0.48,406.000000,,2013-07-08 17:48:00,
2013-07-08 12:55:00,80.0,74.0,-100.00,WNW,286,5.0,10.0,82,0.00,,,0.48,406.000000,,2013-07-08 17:55:00,
2013-07-08 13:14:00,81.0,73.0,-100.00,WNW,285,7.0,15.0,78,0.00,,,0.48,415.000000,,2013-07-08 18:14:00,
2013-07-08 14:00:00,81.0,73.0,-100.00,WNW,285,7.0,15.0,78,0.00,,,0.48,415.000000,,2013-07-08 19:00:00,
2013-07-08 15:06:00,86.0,75.0,-100.00,WSW,258,6.0,11.0,69,0.00,,,0.48,652.000000,,2013-07-08 20:06:00,
2013-07-08 15:13:00,86.0,75.0,-100.00,WSW,258,6.0,11.0,69,0.00,,,0.48,652.000000,,2013-07-08 20:13:00,
2013-07-08 15:56:00,88.0,74.0,-100.00,West,277,4.0,11.0,64,0.00,,,0.48,747.000000,,2013-07-08 20:56:00,
2013-07-08 16:07:00,88.0,74.0,-100.00,West,277,4.0,11.0,64,0.00,,,0.48,747.000000,,2013-07-08 21:07:00,
2013-07-08 16:13:00,88.0,74.0,-100.00,West,277,4.0,11.0,64,0.00,,,0.48,747.000000,,2013-07-08 21:13:00,
2013-07-08 16:14:00,87.0,74.0,-100.00,WSW,238,4.0,9.0,66,0.00,,,-99.99,494.000000,,2013-07-08 21:14:00,
2013-07-08 17:14:00,83.0,75.0,-100.00,WNW,290,5.0,10.0,77,0.00,,,0.48,181.000000,,2013-07-08 22:14:00,
2013-07-08 18:00:00,83.0,75.0,-100.00,WNW,290,5.0,10.0,77,0.00,,,0.48,181.000000,,2013-07-08 23:00:00,
2013-07-08 18:08:00,83.0,75.0,-100.00,WNW,290,5.0,10.0,77,0.00,,,0.48,181.000000,,2013-07-08 23:08:00,
2013-07-08 18:14:00,86.0,74.0,-100.00,WNW,295,0.0,10.0,68,0.00,,,0.48,333.000000,,2013-07-08 23:14:00,
2013-07-08 19:09:00,86.0,74.0,-100.00,WNW,295,0.0,10.0,68,0.00,,,0.48,333.000000,,2013-07-09 00:09:00,
2013-07-08 19:14:00,82.0,74.0,-100.00,East,93,4.0,8.0,78,0.00,,,0.48,203.000000,,2013-07-09 00:14:00,
2013-07-08 20:13:00,82.0,74.0,-100.00,East,93,4.0,8.0,78,0.00,,,0.48,203.000000,,2013-07-09 01:13:00,
2013-07-08 20:14:00,-999.0,-99.9,-100.00,East,90,4.0,6.0,85,0.00,,,0.48,54.000000,,2013-07-09 01:14:00,
2013-07-08 21:01:00,80.0,75.0,-100.00,East,90,4.0,6.0,85,0.00,,,0.48,54.000000,,2013-07-09 02:01:00,
2013-07-08 21:14:00,78.0,75.0,-100.00,ENE,63,2.0,6.0,91,0.00,,,0.48,6.000000,,2013-07-09 02:14:00,
2013-07-08 22:01:00,78.0,75.0,-100.00,ENE,63,2.0,6.0,91,0.00,,,0.48,6.000000,,2013-07-09 03:01:00,
2013-07-08 22:13:00,78.0,75.0,-100.00,ENE,63,2.0,6.0,91,0.00,,,0.48,6.000000,,2013-07-09 03:13:00,
2013-07-08 23:00:00,76.0,72.0,-100.00,East,82,5.0,8.0,87,0.00,,,0.48,0.000000,,2013-07-09 04:00:00,
2013-07-08 23:02:00,76.0,72.0,-100.00,East,82,5.0,8.0,87,0.00,,,0.48,0.000000,,2013-07-09 04:02:00,
2013-07-08 23:11:00,76.0,72.0,-100.00,East,82,5.0,8.0,87,0.00,,,0.48,0.000000,,2013-07-09 04:11:00,
2013-07-08 23:43:00,74.0,72.0,-100.00,East,99,6.0,8.0,93,0.00,,,-99.99,0.000000,,2013-07-09 04:43:00,
2013-07-08 23:53:00,74.0,72.0,-100.00,East,99,6.0,8.0,93,0.00,,,-99.99,0.000000,,2013-07-09 04:53:00,